Weather History for Dayton, OH

Change the Weather History Date:

Tuesday, December 24, 2013

  Actual Average Record
Temperature  
Mean Temperature 19 °F 29 °F  
Max Temperature 26 °F 36 °F 66 °F (1964)
Min Temperature 11 °F 22 °F -15 °F (1983)
Degree Days  
Heating Degree Days 46 36  
Month to date heating degree days 769 791  
Since 1 July heating degree days 1893 1902  
Cooling Degree Days 0 0  
Month to date cooling degree days 0 0  
Year to date cooling degree days 1062 891  
Moisture  
Dew Point 11 °F    
Average Humidity 76    
Maximum Humidity 84    
Minimum Humidity 67    
Precipitation  
Precipitation 0.01 in 0.11 in 1.77 in (1945)
Month to date precipitation 4.42 2.41  
Year to date precipitation 36.37 40.34  
Snow  
Snow 0.10 in 0.20 in 1.90 in (1960)
Month to date snowfall 12.5 3.1  
Since 1 July snowfall 14.5 4.1  
Snow Depth T in    
Sea Level Pressure  
Sea Level Pressure 30.48 in    
Wind  
Wind Speed 9 mph (WNW)    
Max Wind Speed 21 mph    
Max Gust Speed 24 mph    
Visibility 8 miles    
Events Snow    
T = Trace of Precipitation, MM = Missing Value Source: NWS Daily Summary

Daily Weather History Graph

Daily Weather History Graph

Search for Another Location

Airport:

Trip Planner

Search our weather history database for the weather conditions in past years. The results will help you decide how hot, cold, wet, or windy it might be!

Date:

Astronomy

Dec. 24, 2013 Rise Set
Actual Time 7:56 AM EST 5:16 PM EST
Civil Twilight 7:25 AM EST 5:47 PM EST
Nautical Twilight 6:51 AM EST 6:21 PM EST
Astronomical Twilight 6:18 AM EST 6:54 PM EST
Moon No Moon Rise 11:50 AM EST (12/24)
Length of Visible Light 10h 21m
Length of Day
9h 20m
Waning Gibbous, 59% of the Moon is Illuminated
Dec 24
Waning Gibbous
Dec 25
Last Quarter
Jan 1
New
Jan 7
First Quarter
Jan 15
Full

Hourly Weather History & Observations

Time (EST) Temp. Windchill Dew Point Humidity Pressure Visibility Wind Dir Wind Speed Gust Speed Precip Events Conditions
12:13 AM 26.6 °F 16.8 °F 17.6 °F 69% 30.34 in 10.0 mi West 10.4 mph - N/A   Overcast
12:36 AM 24.8 °F 13.4 °F 19.4 °F 80% 30.34 in 2.0 mi NW 12.7 mph - 0.00 in Snow Light Snow
12:56 AM 23.0 °F 11.7 °F 19.0 °F 85% 30.38 in 2.0 mi WNW 11.5 mph - 0.01 in Snow Light Snow
1:03 AM 23.0 °F 11.7 °F 19.4 °F 86% 30.34 in 2.0 mi WNW 11.5 mph - 0.00 in Snow Light Snow
1:14 AM 23.0 °F 11.1 °F 17.6 °F 80% 30.34 in 2.0 mi WNW 12.7 mph - 0.00 in Snow Light Snow
1:40 AM 21.2 °F 9.5 °F 17.6 °F 86% 30.34 in 3.0 mi NW 11.5 mph - 0.00 in Snow Light Snow
1:56 AM 21.9 °F 10.4 °F 17.1 °F 82% 30.38 in 5.0 mi WNW 11.5 mph - 0.00 in Snow Light Snow
2:20 AM 21.2 °F 8.3 °F 17.6 °F 86% 30.35 in 3.0 mi NW 13.8 mph - 0.00 in Snow Light Snow
2:44 AM 21.2 °F 7.3 °F 15.8 °F 80% 30.36 in 4.0 mi WNW 16.1 mph - 0.00 in Snow Light Snow
2:56 AM 19.9 °F 5.7 °F 14.0 °F 78% 30.40 in 7.0 mi WNW 16.1 mph - 0.00 in Snow Light Snow
3:43 AM 15.8 °F -0.6 °F 8.6 °F 73% 30.38 in 10.0 mi WNW 18.4 mph 24.2 mph 0.00 in   Mostly Cloudy
3:56 AM 15.1 °F -1.6 °F 8.1 °F 74% 30.43 in 10.0 mi WNW 18.4 mph - 0.00 in   Partly Cloudy
4:56 AM 12.9 °F -1.6 °F 7.0 °F 77% 30.43 in 10.0 mi WNW 12.7 mph - N/A   Scattered Clouds
5:26 AM 12.2 °F -3.1 °F 6.8 °F 79% 30.39 in 10.0 mi WNW 13.8 mph - N/A   Mostly Cloudy
5:56 AM 12.9 °F -0.9 °F 7.0 °F 77% 30.45 in 10.0 mi WNW 11.5 mph - N/A   Overcast
6:56 AM 12.0 °F -3.4 °F 5.0 °F 73% 30.47 in 10.0 mi WNW 13.8 mph - 0.00 in   Mostly Cloudy
7:56 AM 12.0 °F -2.0 °F 5.0 °F 73% 30.49 in 10.0 mi WNW 11.5 mph 21.9 mph N/A   Overcast
8:56 AM 12.9 °F -3.4 °F 6.1 °F 74% 30.52 in 4.0 mi WNW 16.1 mph - 0.00 in Snow Light Snow
9:56 AM 12.0 °F -4.5 °F 5.0 °F 73% 30.55 in 5.0 mi West 16.1 mph - 0.00 in Snow Light Snow
10:56 AM 12.0 °F -0.4 °F 5.0 °F 73% 30.56 in 10.0 mi West 9.2 mph - 0.00 in   Scattered Clouds
11:30 AM 14.0 °F 2.9 °F 6.8 °F 73% 30.51 in 10.0 mi WNW 8.1 mph - N/A   Mostly Cloudy
11:56 AM 15.1 °F 2.5 °F 7.0 °F 70% 30.56 in 10.0 mi WNW 10.4 mph - N/A   Mostly Cloudy
12:56 PM 16.0 °F 6.3 °F 8.1 °F 71% 30.56 in 10.0 mi WNW 6.9 mph - N/A   Mostly Cloudy
1:56 PM 17.1 °F 5.8 °F 9.0 °F 71% 30.56 in 10.0 mi WNW 9.2 mph - N/A   Mostly Cloudy
2:43 PM 17.6 °F 6.4 °F 8.6 °F 68% 30.51 in 10.0 mi West 9.2 mph - N/A   Scattered Clouds
2:56 PM 17.1 °F 4.3 °F 9.0 °F 71% 30.56 in 10.0 mi WNW 11.5 mph - N/A   Scattered Clouds
3:56 PM 19.0 °F 12.3 °F 10.0 °F 68% 30.56 in 10.0 mi NNW 4.6 mph - N/A   Scattered Clouds
4:36 PM 17.6 °F 9.3 °F 10.4 °F 73% 30.52 in 10.0 mi WNW 5.8 mph - N/A   Mostly Cloudy
4:56 PM 18.0 °F 11.1 °F 10.0 °F 71% 30.58 in 10.0 mi NW 4.6 mph - N/A   Mostly Cloudy
5:04 PM 17.6 °F 10.7 °F 10.4 °F 73% 30.52 in 10.0 mi West 4.6 mph - N/A   Scattered Clouds
5:56 PM 17.1 °F - 10.0 °F 74% 30.59 in 10.0 mi Calm Calm - N/A   Clear
6:56 PM 17.1 °F - 10.0 °F 74% 30.59 in 10.0 mi Calm Calm - N/A   Clear
7:56 PM 16.0 °F 10.4 °F 10.0 °F 77% 30.57 in 10.0 mi East 3.5 mph - N/A   Clear
8:56 PM 15.1 °F 9.4 °F 10.0 °F 80% 30.58 in 10.0 mi SE 3.5 mph - N/A   Clear
9:56 PM 16.0 °F 7.4 °F 10.9 °F 81% 30.56 in 10.0 mi ESE 5.8 mph - N/A   Scattered Clouds
10:56 PM 16.0 °F 8.8 °F 10.9 °F 81% 30.55 in 10.0 mi ESE 4.6 mph - N/A   Mostly Cloudy
11:56 PM 17.1 °F 7.6 °F 12.0 °F 81% 30.54 in 10.0 mi ESE 6.9 mph - N/A   Mostly Cloudy